TERMEEREN Weather Reports


Display with metric or nautical units.
time (UTC)temp
F
wind
direction
speed
MPH
gust
MPH
rain 1hr
in
rain 24hr
in
rain mn
in
humidity
%
barometer
mb
20260506174927 54 223 0.0 2.0 0.00 0.75 0.07 72 1010.9
20260506174411 54 206 0.0 2.0 0.00 0.75 0.07 72 1010.8
20260506173925 55 206 0.0 1.0 0.00 0.75 0.07 72 1010.7
20260506173436 55 246 0.0 3.0 0.00 0.75 0.07 72 1010.7
20260506172929 55 217 0.0 2.0 0.00 0.75 0.07 72 1010.6
20260506172414 55 217 0.0 1.0 0.00 0.75 0.07 73 1010.6
20260506171922 55 212 0.0 2.0 0.00 0.75 0.07 73 1010.6
20260506171427 55 212 0.0 2.0 0.00 0.75 0.07 72 1010.5
20260506170920 55 219 0.0 3.0 0.00 0.75 0.07 72 1010.5
20260506170426 55 335 0.0 3.0 0.00 0.75 0.07 73 1010.5
20260506165933 55 259 0.0 3.0 0.00 0.75 0.07 74 1010.5
20260506165413 55 200 0.0 3.0 0.00 0.75 0.07 73 1010.4
20260506164934 55 205 1.0 3.0 0.00 0.75 0.07 74 1010.4
20260506164439 55 269 0.0 2.0 0.00 0.75 0.07 75 1010.4
20260506163930 55 292 0.0 2.0 0.00 0.75 0.07 75 1010.3
20260506163425 55 301 1.0 2.0 0.00 0.75 0.07 75 1010.3
20260506162959 55 276 1.0 2.0 0.00 0.75 0.07 76 1010.3
20260506162422 55 285 1.0 2.0 0.00 0.75 0.07 75 1010.3
20260506161914 55 281 1.0 2.0 0.00 0.75 0.07 75 1010.3
20260506161418 55 320 0.0 3.0 0.00 0.75 0.07 76 1010.3
20260506160930 55 302 0.0 3.0 0.00 0.75 0.07 75 1010.3
20260506160413 55 326 0.0 2.0 0.00 0.75 0.07 75 1010.3
20260506155916 55 291 0.0 2.0 0.00 0.75 0.07 74 1010.3
20260506155428 55 319 0.0 4.0 0.00 0.75 0.07 74 1010.3
20260506154921 55 316 1.0 4.0 0.00 0.75 0.07 74 1010.3
20260506154420 55 327 0.0 3.0 0.00 0.75 0.07 73 1010.3
20260506153914 55 315 1.0 4.0 0.00 0.75 0.07 73 1010.3
20260506153446 55 291 1.0 4.0 0.00 0.75 0.07 73 1010.3
20260506152938 55 302 1.0 4.0 0.00 0.75 0.07 72 1010.3
20260506152421 55 300 1.0 5.0 0.00 0.75 0.07 72 1010.3
20260506151935 55 315 1.0 10.0 0.00 0.75 0.07 71 1010.3
20260506151415 56 274 1.0 7.0 0.00 0.75 0.07 71 1010.3
20260506150916 56 194 2.0 7.0 0.00 0.75 0.07 71 1010.2
20260506150417 56 203 2.0 5.0 0.00 0.75 0.07 70 1010.2
20260506145921 56 225 1.0 5.0 0.00 0.75 0.07 71 1010.3
20260506145427 57 208 0.0 6.0 0.00 0.75 0.07 70 1010.2
20260506144436 58 309 4.0 7.0 0.00 0.75 0.07 67 1010.1
20260506143911 58 321 2.0 6.0 0.00 0.75 0.07 70 1010.1
20260506143424 57 319 1.0 6.0 0.00 0.75 0.07 71 1010.0
20260506142936 57 248 2.0 7.0 0.00 0.75 0.07 70 1010.0
20260506142416 57 270 3.0 7.0 0.00 0.75 0.07 70 1010.0
20260506141928 58 352 2.0 5.0 0.00 0.75 0.07 71 1010.1
20260506141426 58 8 0.0 5.0 0.00 0.75 0.07 69 1010.0
20260506140929 58 326 1.0 5.0 0.00 0.75 0.07 73 1010.0
20260506135913 58 326 2.0 9.0 0.00 0.75 0.07 73 1010.1
20260506135425 58 208 3.0 9.0 0.00 0.75 0.07 72 1010.0
20260506134911 58 239 4.0 8.0 0.00 0.75 0.07 70 1010.0
20260506134443 58 309 1.0 5.0 0.00 0.75 0.07 72 1010.0
20260506133913 58 211 1.0 4.0 0.00 0.75 0.07 73 1010.0
20260506133425 58 223 1.0 3.0 0.00 0.75 0.07 73 1009.9
20260506132927 57 240 1.0 5.0 0.00 0.75 0.07 72 1010.0
20260506132419 57 306 0.0 5.0 0.00 0.75 0.07 71 1010.0
20260506131911 57 203 2.0 6.0 0.00 0.75 0.07 73 1010.0
20260506131425 57 224 2.0 6.0 0.00 0.75 0.07 72 1010.0
20260506130939 56 181 1.0 4.0 0.00 0.75 0.07 74 1009.9
20260506130416 56 278 1.0 4.0 0.00 0.75 0.07 75 1009.9
20260506125929 57 348 1.0 4.0 0.00 0.75 0.07 73 1009.9
20260506125438 57 319 1.0 2.0 0.00 0.75 0.07 73 1009.8
20260506124951 57 311 0.0 2.0 0.00 0.75 0.07 75 1009.8
20260506124412 57 335 1.0 3.0 0.00 0.75 0.07 74 1009.8
20260506123924 57 264 1.0 3.0 0.00 0.75 0.07 74 1009.8
20260506123430 56 276 0.0 2.0 0.00 0.75 0.07 77 1009.8
20260506122927 56 174 0.0 4.0 0.00 0.75 0.07 77 1009.8
20260506122440 55 208 0.0 4.0 0.00 0.75 0.07 76 1009.9
20260506121931 55 252 0.0 4.0 0.00 0.75 0.07 76 1009.9
20260506121415 56 295 2.0 5.0 0.00 0.75 0.07 74 1009.9
20260506120927 56 306 2.0 5.0 0.00 0.75 0.07 79 1009.9
20260506120411 56 305 1.0 4.0 0.00 0.75 0.07 78 1009.9
20260506115915 55 193 0.0 3.0 0.00 0.75 0.07 79 1009.9
20260506115426 55 189 0.0 4.0 0.00 0.75 0.07 79 1009.8
20260506114940 55 339 1.0 4.0 0.00 0.75 0.07 79 1009.8
20260506114423 55 16 1.0 3.0 0.00 0.75 0.07 78 1009.8
20260506113916 55 319 0.0 4.0 0.00 0.75 0.07 78 1009.8
20260506113418 55 185 1.0 4.0 0.00 0.75 0.07 79 1009.9
20260506112911 55 189 1.0 2.0 0.00 0.75 0.07 82 1009.9
20260506112424 54 198 0.0 2.0 0.00 0.75 0.07 84 1009.8
20260506111955 54 120 0.0 4.0 0.00 0.75 0.07 85 1009.9
20260506111418 54 176 0.0 4.0 0.00 0.75 0.07 85 1009.9
20260506110929 54 212 1.0 3.0 0.00 0.75 0.07 84 1009.8
20260506110434 54 184 0.0 3.0 0.00 0.75 0.07 85 1009.9
20260506105913 53 205 1.0 6.0 0.00 0.75 0.07 84 1009.9
20260506105424 54 229 0.0 4.0 0.00 0.75 0.07 85 1009.9
20260506104935 54 207 1.0 4.0 0.00 0.75 0.07 85 1010.0
20260506104420 54 207 1.0 4.0 0.00 0.75 0.07 86 1010.0
20260506103931 53 245 2.0 4.0 0.00 0.75 0.07 85 1010.1
20260506103424 53 248 1.0 5.0 0.00 0.75 0.07 86 1010.1
20260506102958 53 153 2.0 5.0 0.00 0.75 0.07 87 1010.0
20260506102422 52 233 2.0 5.0 0.00 0.75 0.07 89 1010.0
20260506101914 52 193 0.0 4.0 0.00 0.75 0.07 90 1010.0
20260506101418 52 325 1.0 4.0 0.00 0.75 0.07 90 1010.0
20260506100930 52 274 1.0 3.0 0.00 0.75 0.07 91 1010.0
20260506100413 51 327 1.0 3.0 0.00 0.75 0.07 90 1010.0
20260506095917 51 230 0.0 2.0 0.00 0.75 0.07 91 1010.0
20260506095430 51 208 0.0 3.0 0.00 0.75 0.07 91 1010.0
20260506094924 51 225 0.0 5.0 0.00 0.75 0.07 91 1010.0
20260506094427 50 211 1.0 5.0 0.00 0.75 0.07 91 1010.0
20260506093918 50 325 1.0 4.0 0.00 0.75 0.07 91 1010.0
20260506093431 51 317 0.0 6.0 0.00 0.75 0.07 93 1009.9
20260506092911 50 214 2.0 6.0 0.00 0.75 0.07 92 1009.8
20260506092421 50 192 0.0 6.0 0.00 0.75 0.07 93 1009.8
20260506091924 50 316 2.0 6.0 0.00 0.75 0.07 93 1009.9
20260506091418 50 148 1.0 5.0 0.00 0.75 0.07 93 1009.8
20260506090931 50 215 1.0 5.0 0.00 0.75 0.07 93 1009.8
20260506090435 50 217 0.0 4.0 0.00 0.75 0.07 94 1009.8
20260506085918 49 311 0.0 3.0 0.00 0.75 0.07 94 1009.8
20260506085412 49 294 1.0 3.0 0.00 0.75 0.07 94 1009.7
20260506084924 49 286 0.0 4.0 0.00 0.75 0.07 94 1009.6
20260506084417 49 292 2.0 5.0 0.00 0.75 0.07 94 1009.6
20260506083930 49 304 1.0 5.0 0.00 0.75 0.07 94 1009.6
20260506083435 49 302 1.0 4.0 0.00 0.75 0.07 94 1009.5
20260506082929 48 308 1.0 4.0 0.00 0.75 0.07 94 1009.5
20260506082422 48 317 1.0 4.0 0.00 0.75 0.07 94 1009.5
20260506081924 48 316 1.0 4.0 0.00 0.75 0.07 94 1009.5
20260506081416 48 302 2.0 4.0 0.04 0.75 0.07 94 1009.4
20260506080930 48 325 0.0 4.0 0.04 0.75 0.07 94 1009.4
20260506080428 48 300 1.0 4.0 0.04 0.75 0.07 94 1009.3
20260506073420 48 290 0.0 4.0 0.04 0.75 0.07 94 1009.2
20260506072913 48 214 0.0 4.0 0.04 0.75 0.07 94 1009.2
20260506072447 48 278 1.0 5.0 0.04 0.75 0.07 93 1009.1
20260506071934 48 304 1.0 5.0 0.04 0.75 0.07 93 1009.1
20260506071419 48 305 1.0 3.0 0.00 0.71 0.06 93 1009.1
20260506070942 48 303 1.0 3.0 0.00 0.71 0.06 93 1009.0
20260506070429 48 316 1.0 3.0 0.00 0.71 0.06 93 1009.0
20260506062429 0 0.0 0.0 0.00 0.71 0.06 1008.8
20260506061937 0 0.0 0.0 0.00 0.71 0.06 1008.8
20260506061419 0 0.0 0.0 0.00 0.71 0.06 1008.8
20260506060912 0 0.0 0.0 0.00 0.71 0.06 1008.7
20260506060417 0 0.0 0.0 0.00 0.71 0.06 1008.8
20260506050925 0 0.0 0.0 0.00 0.71 0.06 1008.7
20260506050430 0 0.0 0.0 0.00 0.71 0.06 1008.7
20260506044943 0 0.0 0.0 0.00 0.71 0.06 1008.7
20260506044436 0 0.0 0.0 0.00 0.71 0.06 1008.6
20260506043920 0 0.0 0.0 0.00 0.71 0.06 1008.6
20260506043434 0 0.0 0.0 0.00 0.71 0.06 1008.6
20260506042914 0 0.0 0.0 0.00 0.71 0.06 1008.6
20260506042511 0 0.0 0.0 0.00 0.71 0.06 1008.6
20260506041920 0 0.0 0.0 0.00 0.71 0.06 1008.6
20260506041433 0 0.0 0.0 0.00 0.71 0.06 1008.5
20260506040920 0 0.0 0.0 0.00 0.71 0.06 1008.6
20260506040428 0 0.0 0.0 0.00 0.71 0.06 1008.6
20260506040001 0 0.0 0.0 0.00 0.71 0.06 1008.6
20260506035420 0 0.0 0.0 0.04 0.71 0.06 1008.6
20260506034925 0 0.0 0.0 0.04 0.71 0.06 1008.6
20260506034418 0 0.0 0.0 0.04 0.71 0.06 1008.6
20260506033437 0 0.0 0.0 0.04 0.71 0.06 1008.6
20260506032950 0 0.0 0.0 0.04 0.71 0.06 1008.7
20260506032414 0 0.0 0.0 0.04 0.71 0.06 1008.7
20260506031924 0 0.0 0.0 0.04 0.71 0.06 1008.7
20260506031458 46 280 1.0 2.0 0.04 0.71 0.06 88 1008.7
20260506030915 46 280 1.0 2.0 0.04 0.71 0.06 88 1008.7
20260506030422 46 311 1.0 2.0 0.04 0.71 0.06 88 1008.8
20260506025957 48 326 0.0 1.0 0.04 0.71 0.06 89 1008.8
20260506025450 48 350 0.0 1.0 0.00 0.67 0.06 89 1008.9
20260506024912 48 271 0.0 4.0 0.00 0.67 0.06 88 1008.8
20260506024426 48 300 1.0 4.0 0.00 0.67 0.06 88 1008.9
20260506023941 48 267 1.0 3.0 0.00 0.67 0.06 89 1008.9
20260506023425 48 240 1.0 3.0 0.00 0.67 0.06 88 1008.9
20260506022937 48 300 1.0 3.0 0.00 0.67 0.06 88 1008.9
20260506022422 48 304 2.0 4.0 0.00 0.67 0.06 88 1008.9
20260506021936 48 299 0.0 3.0 0.00 0.67 0.06 89 1009.0
20260506021447 48 283 1.0 4.0 0.00 0.67 0.06 88 1009.0
20260506020931 48 303 1.0 4.0 0.00 0.67 0.06 88 1008.9
20260506020417 48 304 0.0 3.0 0.00 0.67 0.06 89 1008.9
20260506015926 48 289 0.0 2.0 0.00 0.67 0.06 89 1009.0
20260506015430 48 311 0.0 2.0 0.00 0.67 0.06 89 1008.9
20260506014943 48 326 0.0 3.0 0.00 0.67 0.06 89 1009.0
20260506014416 48 319 0.0 3.0 0.00 0.67 0.06 88 1008.9
20260506013916 48 302 1.0 3.0 0.00 0.67 0.06 88 1008.9
20260506013429 48 284 1.0 3.0 0.00 0.67 0.06 88 1009.0
20260506012922 48 8 1.0 3.0 0.00 0.67 0.06 89 1008.9
20260506012413 48 300 0.0 3.0 0.00 0.67 0.06 89 1009.0
20260506011928 48 295 1.0 3.0 0.00 0.67 0.06 89 1009.0
20260506011522 48 315 1.0 3.0 0.00 0.67 0.06 90 1009.0
20260506010955 48 276 0.0 3.0 0.00 0.67 0.06 90 1009.0
20260506010459 48 287 0.0 1.0 0.00 0.67 0.06 91 1009.0
20260506005930 48 274 0.0 1.0 0.00 0.67 0.06 91 1009.0
20260506005417 48 261 0.0 1.0 0.00 0.67 0.06 91 1009.1
20260506004929 48 293 0.0 1.0 0.00 0.67 0.06 91 1009.1
20260506004413 48 300 0.0 1.0 0.00 0.67 0.06 91 1009.1
20260506003946 48 300 0.0 1.0 0.00 0.67 0.06 91 1009.1
20260506003438 48 307 0.0 2.0 0.04 0.67 0.06 91 1009.2
20260506002921 48 283 0.0 3.0 0.04 0.67 0.06 91 1009.2
20260506002435 48 293 1.0 3.0 0.04 0.67 0.06 92 1009.3
20260506001928 48 311 0.0 2.0 0.04 0.67 0.06 92 1009.3
20260506001442 48 302 0.0 2.0 0.08 0.67 0.06 92 1009.3
20260506000954 48 304 0.0 2.0 0.08 0.67 0.06 91 1009.4
20260506000440 48 276 0.0 3.0 0.08 0.67 0.06 91 1009.5
20260505235932 48 304 1.0 3.0 0.08 0.67 0.06 91 1009.5
20260505235415 48 305 0.0 2.0 0.12 0.71 0.06 91 1009.5
20260505234929 49 309 0.0 2.0 0.12 0.71 0.06 91 1009.5
20260505234442 49 314 0.0 4.0 0.16 0.71 0.06 91 1009.6
20260505233929 49 311 1.0 3.0 0.16 0.71 0.06 92 1009.6
20260505233412 49 305 1.0 4.0 0.12 0.67 0.05 92 1009.5
20260505232926 49 302 1.0 4.0 0.16 0.67 0.05 92 1009.6
20260505232438 49 32 1.0 4.0 0.16 0.67 0.05 92 1009.6
20260505231923 49 279 1.0 4.0 0.20 0.67 0.05 92 1009.6
20260505231435 49 314 0.0 3.0 0.16 0.63 0.04 92 1009.6
20260505230919 49 295 1.0 3.0 0.16 0.63 0.04 92 1009.6
20260505230434 49 304 0.0 3.0 0.20 0.63 0.04 92 1009.7
20260505225947 49 307 1.0 3.0 0.16 0.59 0.03 92 1009.7
20260505225418 49 311 1.0 3.0 0.16 0.83 0.03 92 1009.7
20260505224920 49 270 0.0 3.0 0.16 0.83 0.03 92 1009.8
20260505224414 49 316 1.0 3.0 0.16 0.79 0.02 92 1009.8
20260505223927 49 309 2.0 3.0 0.16 0.79 0.02 92 1009.8
20260505223501 49 312 1.0 4.0 0.12 0.75 0.02 92 1009.8
20260505222922 50 330 1.0 4.0 0.16 0.75 0.02 92 1009.8
20260505222416 50 311 0.0 4.0 0.16 0.75 0.02 92 1009.8
20260505221917 50 314 1.0 5.0 0.12 0.71 0.01 92 1009.7
20260505221432 50 299 1.0 5.0 0.16 0.71 0.01 92 1009.8
20260505220915 50 328 1.0 5.0 0.16 0.71 0.01 92 1009.7
20260505220418 50 323 2.0 5.0 0.12 0.67 0.00 93 1009.7
20260505215929 50 312 1.0 3.0 0.16 0.67 0.00 93 1009.7
20260505215440 51 315 0.0 4.0 0.16 0.75 0.13 94 1009.8
20260505214925 51 323 1.0 4.0 0.16 0.75 0.13 94 1009.8
20260505214418 51 274 0.0 0.0 0.12 0.71 0.13 94 1009.8
20260505213929 51 274 0.0 0.0 0.16 0.71 0.13 94 1009.9
20260505213430 51 274 0.0 1.0 0.16 0.71 0.13 94 1009.8
20260505212915 51 274 0.0 1.0 0.12 0.67 0.12 94 1009.8
20260505212428 51 270 0.0 1.0 0.12 0.67 0.12 94 1009.8
20260505211939 51 270 0.0 2.0 0.16 0.67 0.12 94 1009.8
20260505211424 51 4 0.0 1.0 0.12 0.63 0.11 94 1009.9
20260505210937 51 19 0.0 1.0 0.12 0.63 0.11 94 1009.9
20260505210422 51 288 0.0 0.0 0.12 0.59 0.10 94 1009.8
20260505205936 50 345 0.0 0.0 0.12 0.59 0.10 93 1009.9
20260505205419 50 345 0.0 0.0 0.12 0.67 0.10 93 1009.9
20260505204933 51 345 0.0 0.0 0.12 0.67 0.10 93 1009.9
20260505204417 50 345 0.0 0.0 0.12 0.63 0.09 93 1009.9
20260505203930 50 345 0.0 0.0 0.12 0.63 0.09 93 1009.9
20260505203415 51 345 0.0 0.0 0.12 0.63 0.09 93 1010.0
20260505202926 51 345 0.0 0.0 0.16 0.63 0.09 93 1009.9
20260505202419 51 345 0.0 0.0 0.16 0.63 0.09 93 1009.9
20260505201946 51 345 0.0 0.0 0.12 0.59 0.09 93 1009.9
20260505201429 51 345 0.0 0.0 0.12 0.59 0.09 93 1009.9
20260505200931 51 11 0.0 0.0 0.16 0.59 0.09 93 1009.9
20260505200438 51 11 0.0 0.0 0.12 0.55 0.08 93 1009.8
20260505195921 51 11 0.0 0.0 0.12 0.55 0.08 93 1009.8
20260505195414 51 11 0.0 0.0 0.12 0.59 0.08 93 1009.8
20260505194919 51 11 0.0 0.0 0.08 0.55 0.08 92 1009.8
20260505194430 51 11 0.0 0.0 0.08 0.55 0.07 92 1009.8
20260505193941 51 11 0.0 0.0 0.08 0.55 0.07 92 1009.7
20260505193423 51 11 0.0 0.0 0.08 0.55 0.07 92 1009.8
20260505192933 51 352 0.0 0.0 0.04 0.51 0.06 91 1009.7
20260505192447 51 352 0.0 0.0 0.04 0.51 0.06 91 1009.7
20260505191921 51 5 0.0 0.0 0.04 0.51 0.06 91 1009.7
20260505191424 52 318 0.0 0.0 0.04 0.51 0.06 90 1009.6
20260505190914 52 319 0.0 0.0 0.00 0.47 0.06 90 1009.6
20260505190418 52 28 0.0 0.0 0.00 0.47 0.06 90 1009.6
20260505185948 52 28 0.0 0.0 0.00 0.47 0.06 90 1009.6
20260505185437 52 28 0.0 0.0 0.00 0.47 0.06 90 1009.6
20260505184958 52 28 0.0 1.0 0.00 0.47 0.06 90 1009.5
20260505184422 52 28 0.0 1.0 0.00 0.47 0.06 89 1009.5
20260505183935 52 329 0.0 0.0 0.00 0.47 0.06 90 1009.4
20260505183420 52 324 0.0 1.0 0.00 0.47 0.06 90 1009.4
20260505182930 52 4 0.0 1.0 0.00 0.47 0.06 90 1009.5
20260505182416 52 5 0.0 2.0 0.00 0.47 0.06 90 1009.4
20260505181927 52 6 0.0 2.0 0.00 0.47 0.06 91 1009.4
20260505181440 52 349 0.0 4.0 0.00 0.47 0.06 91 1009.5
20260505180912 52 301 0.0 3.0 0.00 0.47 0.06 91 1009.4
20260505180420 52 28 1.0 3.0 0.00 0.47 0.06 91 1009.4
20260505175954 52 302 1.0 4.0 0.00 0.47 0.06 91 1009.4
20260505175425 52 326 1.0 5.0 0.00 0.47 0.06 91 1009.5